Time,TemperatureF,DewpointF,PressureIn,WindDirection,WindDirectionDegrees,WindSpeedMPH,WindSpeedGustMPH,Humidity,HourlyPrecipIn,Conditions,Clouds,dailyrainin,SolarRadiationWatts/m^2,SoftwareType,DateUTC
2013-01-23 00:09:00,11.5,6.5,30.42,West,281,0.0,0.0,80,0.00,,,0.00,0,Wunderground v.1.15,2013-01-23 06:09:00,
2013-01-23 00:14:00,11.7,6.4,30.42,West,281,0.0,0.0,79,0.00,,,0.00,0,Wunderground v.1.15,2013-01-23 06:14:00,
2013-01-23 00:24:00,12.1,6.0,30.41,West,281,0.0,0.0,76,0.00,,,0.00,0,Wunderground v.1.15,2013-01-23 06:24:00,
2013-01-23 00:29:00,12.3,6.2,30.41,West,281,0.0,0.0,76,0.00,,,0.00,0,Wunderground v.1.15,2013-01-23 06:29:00,
2013-01-23 00:34:00,12.4,5.7,30.41,West,281,0.0,0.0,74,0.00,,,0.00,0,Wunderground v.1.15,2013-01-23 06:34:00,
2013-01-23 00:39:00,12.6,5.6,30.41,West,281,0.0,0.0,73,0.00,,,0.00,0,Wunderground v.1.15,2013-01-23 06:39:00,
2013-01-23 00:44:00,12.7,5.4,30.42,West,281,0.0,0.0,72,0.00,,,0.00,0,Wunderground v.1.15,2013-01-23 06:44:00,
2013-01-23 00:49:00,12.8,5.5,30.41,West,281,0.0,0.0,72,0.00,,,0.00,0,Wunderground v.1.15,2013-01-23 06:49:00,
2013-01-23 00:54:00,12.9,5.3,30.41,West,281,0.0,0.0,71,0.00,,,0.00,0,Wunderground v.1.15,2013-01-23 06:54:00,
2013-01-23 00:59:00,13.0,4.7,30.40,West,281,0.0,0.0,69,0.00,,,0.00,0,Wunderground v.1.15,2013-01-23 06:59:00,
2013-01-23 01:09:00,13.2,4.9,30.40,West,281,0.0,0.0,69,0.00,,,0.00,0,Wunderground v.1.15,2013-01-23 07:09:00,
2013-01-23 01:14:00,13.3,5.0,30.40,West,281,0.0,0.0,69,0.00,,,0.00,0,Wunderground v.1.15,2013-01-23 07:14:00,
2013-01-23 01:19:00,13.4,4.8,30.40,West,281,0.0,0.0,68,0.00,,,0.00,0,Wunderground v.1.15,2013-01-23 07:19:00,
2013-01-23 01:29:00,13.5,5.5,30.40,West,281,0.0,0.0,70,0.00,,,0.00,0,Wunderground v.1.15,2013-01-23 07:29:00,
2013-01-23 01:34:00,13.6,5.6,30.40,West,281,0.0,0.0,70,0.00,,,0.00,0,Wunderground v.1.15,2013-01-23 07:34:00,
2013-01-23 01:39:00,13.6,5.6,30.40,West,281,0.0,0.0,70,0.00,,,0.00,0,Wunderground v.1.15,2013-01-23 07:39:00,
2013-01-23 01:44:00,13.7,5.4,30.41,West,281,0.0,0.0,69,0.00,,,0.00,0,Wunderground v.1.15,2013-01-23 07:44:00,
2013-01-23 01:49:00,13.7,5.4,30.41,West,281,0.0,0.0,69,0.00,,,0.00,0,Wunderground v.1.15,2013-01-23 07:49:00,
2013-01-23 01:54:00,13.8,5.5,30.41,West,281,0.0,1.0,69,0.00,,,0.00,0,Wunderground v.1.15,2013-01-23 07:54:00,
2013-01-23 01:59:00,13.9,5.6,30.40,West,281,1.0,1.0,69,0.00,,,0.00,0,Wunderground v.1.15,2013-01-23 07:59:00,
2013-01-23 02:09:00,14.1,6.4,30.40,West,281,1.0,1.0,71,0.00,,,0.00,0,Wunderground v.1.15,2013-01-23 08:09:00,
2013-01-23 02:14:00,14.1,6.4,30.40,West,281,1.0,1.0,71,0.00,,,0.00,0,Wunderground v.1.15,2013-01-23 08:14:00,
2013-01-23 02:19:00,14.2,6.5,30.40,West,281,0.0,0.0,71,0.00,,,0.00,0,Wunderground v.1.15,2013-01-23 08:19:00,
2013-01-23 02:24:00,14.2,6.5,30.39,West,281,0.0,0.0,71,0.00,,,0.00,0,Wunderground v.1.15,2013-01-23 08:24:00,
2013-01-23 02:34:00,14.3,6.6,30.39,West,281,0.0,1.0,71,0.00,,,0.00,0,Wunderground v.1.15,2013-01-23 08:34:00,
2013-01-23 02:39:00,14.3,6.6,30.39,West,281,1.0,1.0,71,0.00,,,0.00,0,Wunderground v.1.15,2013-01-23 08:39:00,
2013-01-23 02:44:00,14.4,6.7,30.39,West,281,1.0,1.0,71,0.00,,,0.00,0,Wunderground v.1.15,2013-01-23 08:44:00,
2013-01-23 02:49:00,14.4,6.7,30.39,West,281,1.0,1.0,71,0.00,,,0.00,0,Wunderground v.1.15,2013-01-23 08:49:00,
2013-01-23 02:54:00,14.4,6.7,30.38,West,281,0.0,1.0,71,0.00,,,0.00,0,Wunderground v.1.15,2013-01-23 08:54:00,
2013-01-23 03:04:00,14.5,7.1,30.39,West,281,1.0,1.0,72,0.00,,,0.00,0,Wunderground v.1.15,2013-01-23 09:04:00,
2013-01-23 03:09:00,14.6,6.9,30.38,West,281,1.0,1.0,71,0.00,,,0.00,0,Wunderground v.1.15,2013-01-23 09:09:00,
2013-01-23 03:14:00,14.6,6.9,30.38,West,281,1.0,1.0,71,0.00,,,0.00,0,Wunderground v.1.15,2013-01-23 09:14:00,
2013-01-23 03:19:00,14.7,7.0,30.38,West,281,1.0,1.0,71,0.00,,,0.00,0,Wunderground v.1.15,2013-01-23 09:19:00,
2013-01-23 03:24:00,14.7,7.3,30.38,West,281,1.0,2.0,72,0.00,,,0.00,0,Wunderground v.1.15,2013-01-23 09:24:00,
2013-01-23 03:29:00,14.8,7.4,30.37,West,281,2.0,2.0,72,0.00,,,0.00,0,Wunderground v.1.15,2013-01-23 09:29:00,
2013-01-23 03:39:00,14.9,6.9,30.38,West,281,2.0,2.0,70,0.00,,,0.00,0,Wunderground v.1.15,2013-01-23 09:39:00,
2013-01-23 03:44:00,14.9,6.9,30.38,West,281,2.0,2.0,70,0.00,,,0.00,0,Wunderground v.1.15,2013-01-23 09:44:00,
2013-01-23 03:49:00,14.9,6.9,30.38,West,281,2.0,3.0,70,0.00,,,0.00,0,Wunderground v.1.15,2013-01-23 09:49:00,
2013-01-23 03:54:00,15.0,7.0,30.38,West,280,3.0,3.0,70,0.00,,,0.00,0,Wunderground v.1.15,2013-01-23 09:54:00,
2013-01-23 03:59:00,15.0,7.3,30.38,West,281,3.0,3.0,71,0.00,,,0.00,0,Wunderground v.1.15,2013-01-23 09:59:00,
2013-01-23 04:04:00,15.1,7.4,30.37,West,280,3.0,3.0,71,0.00,,,0.00,0,Wunderground v.1.15,2013-01-23 10:04:00,
2013-01-23 04:09:00,15.2,7.5,30.37,West,280,3.0,3.0,71,0.00,,,0.00,0,Wunderground v.1.15,2013-01-23 10:09:00,
2013-01-23 04:14:00,15.2,7.2,30.37,West,280,3.0,4.0,70,0.00,,,0.00,0,Wunderground v.1.15,2013-01-23 10:14:00,
2013-01-23 04:19:00,15.3,6.9,30.37,West,280,3.0,3.0,69,0.00,,,0.00,0,Wunderground v.1.15,2013-01-23 10:19:00,
2013-01-23 04:24:00,15.3,6.9,30.37,West,280,3.0,3.0,69,0.00,,,0.00,0,Wunderground v.1.15,2013-01-23 10:24:00,
2013-01-23 04:29:00,15.4,6.7,30.36,West,280,3.0,3.0,68,0.00,,,0.00,0,Wunderground v.1.15,2013-01-23 10:29:00,
2013-01-23 04:34:00,15.5,6.2,30.36,West,277,3.0,5.0,66,0.00,,,0.00,0,Wunderground v.1.15,2013-01-23 10:34:00,
2013-01-23 04:44:00,15.6,5.9,30.36,West,260,4.0,5.0,65,0.00,,,0.00,0,Wunderground v.1.15,2013-01-23 10:44:00,
2013-01-23 04:49:00,15.7,6.3,30.35,West,259,4.0,4.0,66,0.00,,,0.00,0,Wunderground v.1.15,2013-01-23 10:49:00,
2013-01-23 04:54:00,15.8,6.8,30.35,West,259,3.0,4.0,67,0.00,,,0.00,0,Wunderground v.1.15,2013-01-23 10:54:00,
2013-01-23 04:59:00,15.8,6.4,30.35,WSW,246,3.0,3.0,66,0.00,,,0.00,0,Wunderground v.1.15,2013-01-23 10:59:00,
2013-01-23 05:04:00,15.9,6.2,30.35,WSW,243,4.0,4.0,65,0.00,,,0.00,0,Wunderground v.1.15,2013-01-23 11:04:00,
2013-01-23 05:09:00,15.9,6.2,30.36,WSW,240,4.0,4.0,65,0.00,,,0.00,0,Wunderground v.1.15,2013-01-23 11:09:00,
2013-01-23 05:19:00,16.0,6.6,30.35,SW,225,4.0,5.0,66,0.00,,,0.00,0,Wunderground v.1.15,2013-01-23 11:19:00,
2013-01-23 05:24:00,16.0,6.6,30.35,SW,221,5.0,7.0,66,0.00,,,0.00,0,Wunderground v.1.15,2013-01-23 11:24:00,
2013-01-23 05:29:00,16.1,6.7,30.35,SW,217,5.0,5.0,66,0.00,,,0.00,0,Wunderground v.1.15,2013-01-23 11:29:00,
2013-01-23 05:34:00,16.1,6.7,30.35,SW,215,4.0,6.0,66,0.00,,,0.00,0,Wunderground v.1.15,2013-01-23 11:34:00,
2013-01-23 05:39:00,16.1,6.7,30.34,SSW,209,5.0,5.0,66,0.00,,,0.00,0,Wunderground v.1.15,2013-01-23 11:39:00,
2013-01-23 05:49:00,16.1,6.7,30.35,SSW,207,4.0,4.0,66,0.00,,,0.00,0,Wunderground v.1.15,2013-01-23 11:49:00,
2013-01-23 05:54:00,16.1,7.1,30.35,SSW,207,4.0,4.0,67,0.00,,,0.00,0,Wunderground v.1.15,2013-01-23 11:54:00,
2013-01-23 05:59:00,16.1,7.4,30.35,SSW,207,4.0,4.0,68,0.00,,,0.00,0,Wunderground v.1.15,2013-01-23 11:59:00,
2013-01-23 06:04:00,16.1,7.7,30.35,SSW,207,3.0,5.0,69,0.00,,,0.00,0,Wunderground v.1.15,2013-01-23 12:04:00,
2013-01-23 06:09:00,16.0,7.6,30.35,SSW,207,3.0,3.0,69,0.00,,,0.00,0,Wunderground v.1.15,2013-01-23 12:09:00,
2013-01-23 06:14:00,16.0,7.9,30.35,SSW,207,3.0,3.0,70,0.00,,,0.00,0,Wunderground v.1.15,2013-01-23 12:14:00,
2013-01-23 06:24:00,15.9,8.2,30.35,SSW,207,2.0,3.0,71,0.00,,,0.00,0,Wunderground v.1.15,2013-01-23 12:24:00,
2013-01-23 06:29:00,15.8,8.1,30.35,SSW,207,2.0,2.0,71,0.00,,,0.00,0,Wunderground v.1.15,2013-01-23 12:29:00,
2013-01-23 06:34:00,15.7,8.0,30.35,SSW,207,2.0,2.0,71,0.00,,,0.00,0,Wunderground v.1.15,2013-01-23 12:34:00,
2013-01-23 06:39:00,15.7,8.0,30.36,SSW,207,2.0,2.0,71,0.00,,,0.00,0,Wunderground v.1.15,2013-01-23 12:39:00,
2013-01-23 06:44:00,15.7,8.3,30.35,SSW,207,2.0,2.0,72,0.00,,,0.00,0,Wunderground v.1.15,2013-01-23 12:44:00,
2013-01-23 06:54:00,15.7,8.3,30.35,SSW,207,2.0,3.0,72,0.00,,,0.00,0,Wunderground v.1.15,2013-01-23 12:54:00,
2013-01-23 06:59:00,15.6,8.2,30.34,SSW,207,2.0,3.0,72,0.00,,,0.00,0,Wunderground v.1.15,2013-01-23 12:59:00,
2013-01-23 07:04:00,15.7,8.3,30.34,SSW,207,3.0,3.0,72,0.00,,,0.00,0,Wunderground v.1.15,2013-01-23 13:04:00,
2013-01-23 07:09:00,15.7,8.0,30.34,SSW,207,3.0,4.0,71,0.00,,,0.00,0,Wunderground v.1.15,2013-01-23 13:09:00,
2013-01-23 07:14:00,15.7,8.0,30.33,SSW,207,3.0,4.0,71,0.00,,,0.00,0,Wunderground v.1.15,2013-01-23 13:14:00,
2013-01-23 07:19:00,15.6,7.9,30.33,SSW,207,3.0,5.0,71,0.00,,,0.00,0,Wunderground v.1.15,2013-01-23 13:19:00,
2013-01-23 07:29:00,15.5,7.8,30.33,SSW,206,4.0,4.0,71,0.00,,,0.00,11,Wunderground v.1.15,2013-01-23 13:29:00,
2013-01-23 07:34:00,15.5,7.8,30.33,SSW,206,4.0,4.0,71,0.00,,,0.00,14,Wunderground v.1.15,2013-01-23 13:34:00,
2013-01-23 07:39:00,15.4,7.7,30.33,SSW,206,3.0,3.0,71,0.00,,,0.00,16,Wunderground v.1.15,2013-01-23 13:39:00,
2013-01-23 07:44:00,15.3,7.9,30.33,SSW,206,3.0,3.0,72,0.00,,,0.00,21,Wunderground v.1.15,2013-01-23 13:44:00,
2013-01-23 07:54:00,15.0,8.2,30.32,SSW,206,3.0,3.0,74,0.00,,,0.00,42,Wunderground v.1.15,2013-01-23 13:54:00,
2013-01-23 07:59:00,15.1,8.3,30.32,SSW,206,3.0,3.0,74,0.00,,,0.00,53,Wunderground v.1.15,2013-01-23 13:59:00,
2013-01-23 08:09:00,15.5,8.7,30.33,SSW,199,4.0,5.0,74,0.00,,,0.00,98,Wunderground v.1.15,2013-01-23 14:09:00,
2013-01-23 08:14:00,15.9,8.8,30.33,South,189,5.0,6.0,73,0.00,,,0.00,100,Wunderground v.1.15,2013-01-23 14:14:00,
2013-01-23 08:19:00,16.2,9.1,30.33,SSE,168,5.0,6.0,73,0.00,,,0.00,102,Wunderground v.1.15,2013-01-23 14:19:00,
2013-01-23 08:24:00,16.3,9.2,30.33,South,169,6.0,8.0,73,0.00,,,0.00,107,Wunderground v.1.15,2013-01-23 14:24:00,
2013-01-23 08:34:00,16.7,9.8,30.32,SSE,165,6.0,7.0,74,0.00,,,0.00,97,Wunderground v.1.15,2013-01-23 14:34:00,
2013-01-23 08:39:00,16.8,9.9,30.32,SSE,163,6.0,7.0,74,0.00,,,0.00,105,Wunderground v.1.15,2013-01-23 14:39:00,
2013-01-23 08:44:00,16.9,10.0,30.33,South,170,6.0,10.0,74,0.00,,,0.00,107,Wunderground v.1.15,2013-01-23 14:44:00,
2013-01-23 08:49:00,17.1,10.5,30.32,South,180,6.0,10.0,75,0.00,,,0.00,123,Wunderground v.1.15,2013-01-23 14:49:00,
2013-01-23 08:54:00,17.3,10.4,30.32,South,178,7.0,10.0,74,0.00,,,0.00,134,Wunderground v.1.15,2013-01-23 14:54:00,
2013-01-23 08:59:00,17.5,10.9,30.32,South,181,8.0,8.0,75,0.00,,,0.00,125,Wunderground v.1.15,2013-01-23 14:59:00,
2013-01-23 09:04:00,17.7,11.1,30.32,South,177,8.0,8.0,75,0.00,,,0.00,257,Wunderground v.1.15,2013-01-23 15:04:00,
2013-01-23 09:09:00,18.2,11.3,30.31,South,175,8.0,10.0,74,0.00,,,0.00,267,Wunderground v.1.15,2013-01-23 15:09:00,
2013-01-23 09:14:00,18.7,11.2,30.31,South,182,7.0,12.0,72,0.00,,,0.00,294,Wunderground v.1.15,2013-01-23 15:14:00,
2013-01-23 09:19:00,19.3,11.1,30.30,SSE,163,8.0,9.0,70,0.00,,,0.00,315,Wunderground v.1.15,2013-01-23 15:19:00,
2013-01-23 09:24:00,19.5,11.0,30.31,South,173,8.0,9.0,69,0.00,,,0.00,336,Wunderground v.1.15,2013-01-23 15:24:00,
2013-01-23 09:29:00,19.8,10.9,30.31,South,176,8.0,9.0,68,0.00,,,0.00,225,Wunderground v.1.15,2013-01-23 15:29:00,
2013-01-23 09:39:00,20.5,10.9,30.31,SSE,167,8.0,8.0,66,0.00,,,0.00,237,Wunderground v.1.15,2013-01-23 15:39:00,
2013-01-23 09:44:00,20.8,10.9,30.31,South,176,8.0,8.0,65,0.00,,,0.00,410,Wunderground v.1.15,2013-01-23 15:44:00,
2013-01-23 09:49:00,21.2,10.9,30.30,SSE,161,7.0,7.0,64,0.00,,,0.00,253,Wunderground v.1.15,2013-01-23 15:49:00,
2013-01-23 09:54:00,21.5,11.2,30.31,South,170,7.0,11.0,64,0.00,,,0.00,299,Wunderground v.1.15,2013-01-23 15:54:00,
2013-01-23 09:59:00,21.8,11.5,30.31,South,175,7.0,7.0,64,0.00,,,0.00,329,Wunderground v.1.15,2013-01-23 15:59:00,
2013-01-23 10:04:00,22.1,11.8,30.30,South,190,7.0,7.0,64,0.00,,,0.00,329,Wunderground v.1.15,2013-01-23 16:04:00,
2013-01-23 10:14:00,22.8,12.4,30.30,South,172,6.0,8.0,64,0.00,,,0.00,406,Wunderground v.1.15,2013-01-23 16:14:00,
2013-01-23 10:19:00,23.1,12.4,30.31,SSW,205,7.0,9.0,63,0.00,,,0.00,352,Wunderground v.1.15,2013-01-23 16:19:00,
2013-01-23 10:24:00,23.3,12.6,30.30,South,175,8.0,9.0,63,0.00,,,0.00,401,Wunderground v.1.15,2013-01-23 16:24:00,
2013-01-23 10:29:00,23.6,12.8,30.30,South,180,6.0,6.0,63,0.00,,,0.00,457,Wunderground v.1.15,2013-01-23 16:29:00,
2013-01-23 10:34:00,24.1,12.9,30.30,South,175,5.0,6.0,62,0.00,,,0.00,464,Wunderground v.1.15,2013-01-23 16:34:00,
2013-01-23 10:44:00,24.9,13.3,30.29,SSW,201,5.0,5.0,61,0.00,,,0.00,450,Wunderground v.1.15,2013-01-23 16:44:00,
2013-01-23 10:49:00,25.2,13.6,30.29,South,190,6.0,7.0,61,0.00,,,0.00,452,Wunderground v.1.15,2013-01-23 16:49:00,
2013-01-23 10:54:00,25.6,14.0,30.29,South,180,6.0,7.0,61,0.00,,,0.00,461,Wunderground v.1.15,2013-01-23 16:54:00,
2013-01-23 10:59:00,26.0,13.6,30.28,South,180,6.0,6.0,59,0.00,,,0.00,466,Wunderground v.1.15,2013-01-23 16:59:00,
2013-01-23 11:04:00,26.3,13.5,30.29,South,191,5.0,7.0,58,0.00,,,0.00,471,Wunderground v.1.15,2013-01-23 17:04:00,
2013-01-23 11:09:00,26.5,13.7,30.28,SSW,199,6.0,6.0,58,0.00,,,0.00,475,Wunderground v.1.15,2013-01-23 17:09:00,
2013-01-23 11:19:00,27.1,13.9,30.27,South,182,5.0,5.0,57,0.00,,,0.00,487,Wunderground v.1.15,2013-01-23 17:19:00,
2013-01-23 11:24:00,27.4,14.9,30.27,SSW,209,5.0,6.0,59,0.00,,,0.00,492,Wunderground v.1.15,2013-01-23 17:24:00,
2013-01-23 11:29:00,27.6,13.9,30.27,SW,217,6.0,6.0,56,0.00,,,0.00,496,Wunderground v.1.15,2013-01-23 17:29:00,
2013-01-23 11:34:00,27.8,14.5,30.27,SW,221,6.0,8.0,57,0.00,,,0.00,497,Wunderground v.1.15,2013-01-23 17:34:00,
2013-01-23 11:39:00,28.0,14.7,30.26,SW,215,6.0,6.0,57,0.00,,,0.00,503,Wunderground v.1.15,2013-01-23 17:39:00,
2013-01-23 11:49:00,28.7,15.8,30.25,SSW,205,8.0,8.0,58,0.00,,,0.00,506,Wunderground v.1.15,2013-01-23 17:49:00,
2013-01-23 11:54:00,28.8,15.5,30.24,SSW,204,8.0,10.0,57,0.00,,,0.00,508,Wunderground v.1.15,2013-01-23 17:54:00,
2013-01-23 11:59:00,28.8,14.6,30.24,SW,225,9.0,9.0,55,0.00,,,0.00,510,Wunderground v.1.15,2013-01-23 17:59:00,
2013-01-23 12:04:00,28.9,15.6,30.24,SW,235,10.0,10.0,57,0.00,,,0.00,512,Wunderground v.1.15,2013-01-23 18:04:00,
2013-01-23 12:09:00,29.2,16.2,30.24,SW,219,10.0,10.0,58,0.00,,,0.00,512,Wunderground v.1.15,2013-01-23 18:09:00,
2013-01-23 12:14:00,29.3,15.9,30.23,SW,223,9.0,10.0,57,0.00,,,0.00,512,Wunderground v.1.15,2013-01-23 18:14:00,
2013-01-23 12:24:00,29.7,16.3,30.23,SW,225,10.0,13.0,57,0.00,,,0.00,512,Wunderground v.1.15,2013-01-23 18:24:00,
2013-01-23 12:29:00,29.8,16.0,30.22,WSW,252,10.0,10.0,56,0.00,,,0.00,510,Wunderground v.1.15,2013-01-23 18:29:00,
2013-01-23 12:34:00,30.0,16.2,30.22,SW,236,10.0,10.0,56,0.00,,,0.00,508,Wunderground v.1.15,2013-01-23 18:34:00,
2013-01-23 12:39:00,30.1,17.1,30.22,WSW,246,11.0,14.0,58,0.00,,,0.00,506,Wunderground v.1.15,2013-01-23 18:39:00,
2013-01-23 12:44:00,30.3,16.9,30.21,WSW,249,11.0,14.0,57,0.00,,,0.00,506,Wunderground v.1.15,2013-01-23 18:44:00,
2013-01-23 12:54:00,30.8,17.3,30.20,WSW,246,11.0,11.0,57,0.00,,,0.00,501,Wunderground v.1.15,2013-01-23 18:54:00,
2013-01-23 12:59:00,31.0,17.1,30.20,SW,225,12.0,12.0,56,0.00,,,0.00,497,Wunderground v.1.15,2013-01-23 18:59:00,
2013-01-23 13:04:00,31.1,16.8,30.19,WSW,250,12.0,12.0,55,0.00,,,0.00,494,Wunderground v.1.15,2013-01-23 19:04:00,
2013-01-23 13:09:00,31.2,17.3,30.19,WSW,246,12.0,12.0,56,0.00,,,0.00,489,Wunderground v.1.15,2013-01-23 19:09:00,
2013-01-23 13:14:00,31.5,18.8,30.19,WSW,254,11.0,12.0,59,0.00,,,0.00,485,Wunderground v.1.15,2013-01-23 19:14:00,
2013-01-23 13:19:00,32.0,18.9,30.19,SW,223,12.0,12.0,58,0.00,,,0.00,480,Wunderground v.1.15,2013-01-23 19:19:00,
2013-01-23 13:29:00,32.4,18.4,30.19,WSW,242,11.0,11.0,56,0.00,,,0.00,469,Wunderground v.1.15,2013-01-23 19:29:00,
2013-01-23 13:34:00,32.6,18.2,30.18,WSW,257,11.0,11.0,55,0.00,,,0.00,464,Wunderground v.1.15,2013-01-23 19:34:00,
2013-01-23 13:39:00,33.0,19.0,30.18,West,262,10.0,10.0,56,0.00,,,0.00,457,Wunderground v.1.15,2013-01-23 19:39:00,
2013-01-23 13:44:00,33.1,18.2,30.18,West,259,10.0,10.0,54,0.00,,,0.00,450,Wunderground v.1.15,2013-01-23 19:44:00,
2013-01-23 13:49:00,33.5,19.0,30.19,WNW,285,11.0,12.0,55,0.00,,,0.00,441,Wunderground v.1.15,2013-01-23 19:49:00,
2013-01-23 13:59:00,33.7,18.8,30.18,WSW,257,12.0,13.0,54,0.00,,,0.00,431,Wunderground v.1.15,2013-01-23 19:59:00,
2013-01-23 14:04:00,33.8,18.9,30.18,West,277,12.0,13.0,54,0.00,,,0.00,422,Wunderground v.1.15,2013-01-23 20:04:00,
2013-01-23 14:09:00,34.0,19.1,30.17,West,270,11.0,11.0,54,0.00,,,0.00,411,Wunderground v.1.15,2013-01-23 20:09:00,
2013-01-23 14:14:00,34.1,19.2,30.17,WSW,256,10.0,11.0,54,0.00,,,0.00,385,Wunderground v.1.15,2013-01-23 20:14:00,
2013-01-23 14:19:00,34.3,19.4,30.18,West,275,10.0,10.0,54,0.00,,,0.00,390,Wunderground v.1.15,2013-01-23 20:19:00,
2013-01-23 14:24:00,34.5,19.5,30.18,West,267,11.0,16.0,54,0.00,,,0.00,385,Wunderground v.1.15,2013-01-23 20:24:00,
2013-01-23 14:34:00,34.8,19.8,30.18,WNW,283,12.0,12.0,54,0.00,,,0.00,359,Wunderground v.1.15,2013-01-23 20:34:00,
2013-01-23 14:39:00,34.8,20.3,30.18,West,278,12.0,12.0,55,0.00,,,0.00,355,Wunderground v.1.15,2013-01-23 20:39:00,
2013-01-23 14:44:00,35.0,20.9,30.18,WNW,297,14.0,15.0,56,0.00,,,0.00,350,Wunderground v.1.15,2013-01-23 20:44:00,
2013-01-23 14:49:00,34.9,20.4,30.18,WNW,292,14.0,14.0,55,0.00,,,0.00,336,Wunderground v.1.15,2013-01-23 20:49:00,
2013-01-23 14:54:00,34.7,20.6,30.18,WNW,292,14.0,14.0,56,0.00,,,0.00,320,Wunderground v.1.15,2013-01-23 20:54:00,
2013-01-23 15:04:00,34.8,21.1,30.18,NW,311,14.0,18.0,57,0.00,,,0.00,294,Wunderground v.1.15,2013-01-23 21:04:00,
2013-01-23 15:09:00,34.7,21.0,30.18,WNW,292,15.0,17.0,57,0.00,,,0.00,288,Wunderground v.1.15,2013-01-23 21:09:00,
2013-01-23 15:14:00,34.3,20.6,30.18,WNW,298,16.0,17.0,57,0.00,,,0.00,223,Wunderground v.1.15,2013-01-23 21:14:00,
2013-01-23 15:19:00,34.0,20.8,30.18,WNW,284,17.0,17.0,58,0.00,,,0.00,244,Wunderground v.1.15,2013-01-23 21:19:00,
2013-01-23 15:24:00,34.0,20.8,30.18,WNW,288,15.0,17.0,58,0.00,,,0.00,241,Wunderground v.1.15,2013-01-23 21:24:00,
2013-01-23 15:29:00,34.1,20.9,30.18,WNW,290,13.0,16.0,58,0.00,,,0.00,220,Wunderground v.1.15,2013-01-23 21:29:00,
2013-01-23 15:39:00,34.4,21.1,30.18,West,277,13.0,16.0,58,0.00,,,0.00,190,Wunderground v.1.15,2013-01-23 21:39:00,
2013-01-23 15:44:00,34.5,21.6,30.18,WNW,298,13.0,16.0,59,0.00,,,0.00,178,Wunderground v.1.15,2013-01-23 21:44:00,
2013-01-23 15:49:00,34.5,21.2,30.18,WNW,292,14.0,14.0,58,0.00,,,0.00,139,Wunderground v.1.15,2013-01-23 21:49:00,
2013-01-23 15:54:00,34.4,21.1,30.19,WNW,289,15.0,15.0,58,0.00,,,0.00,148,Wunderground v.1.15,2013-01-23 21:54:00,
2013-01-23 16:04:00,34.4,21.1,30.19,WNW,301,15.0,20.0,58,0.00,,,0.00,121,Wunderground v.1.15,2013-01-23 22:04:00,
2013-01-23 16:09:00,34.4,21.9,30.19,WNW,294,15.0,15.0,60,0.00,,,0.00,105,Wunderground v.1.15,2013-01-23 22:09:00,
2013-01-23 16:14:00,34.3,21.8,30.19,WNW,300,15.0,15.0,60,0.00,,,0.00,91,Wunderground v.1.15,2013-01-23 22:14:00,
2013-01-23 16:24:00,34.1,21.7,30.19,WNW,302,16.0,18.0,60,0.00,,,0.00,63,Wunderground v.1.15,2013-01-23 22:24:00,
2013-01-23 16:29:00,33.8,21.8,30.19,WNW,295,17.0,18.0,61,0.00,,,0.00,53,Wunderground v.1.15,2013-01-23 22:29:00,
2013-01-23 16:34:00,33.6,22.0,30.19,WNW,296,18.0,18.0,62,0.00,,,0.00,39,Wunderground v.1.15,2013-01-23 22:34:00,
2013-01-23 16:39:00,33.3,22.1,30.19,NW,317,17.0,17.0,63,0.00,,,0.00,25,Wunderground v.1.15,2013-01-23 22:39:00,
2013-01-23 16:44:00,32.8,22.0,30.20,NW,310,17.0,18.0,64,0.00,,,0.00,18,Wunderground v.1.15,2013-01-23 22:44:00,
2013-01-23 16:49:00,32.3,21.8,30.20,NW,313,17.0,18.0,65,0.00,,,0.00,14,Wunderground v.1.15,2013-01-23 22:49:00,
2013-01-23 16:59:00,31.7,21.6,30.20,NW,308,17.0,17.0,66,0.00,,,0.00,12,Wunderground v.1.15,2013-01-23 22:59:00,
2013-01-23 17:04:00,31.4,22.1,30.20,WNW,303,16.0,17.0,68,0.00,,,0.00,7,Wunderground v.1.15,2013-01-23 23:04:00,
2013-01-23 17:09:00,31.0,21.3,30.20,NW,306,16.0,18.0,67,0.00,,,0.00,0,Wunderground v.1.15,2013-01-23 23:09:00,
2013-01-23 17:14:00,30.8,21.5,30.20,WNW,303,15.0,18.0,68,0.00,,,0.00,0,Wunderground v.1.15,2013-01-23 23:14:00,
2013-01-23 17:19:00,30.5,21.2,30.21,NW,308,16.0,17.0,68,0.00,,,0.00,0,Wunderground v.1.15,2013-01-23 23:19:00,
2013-01-23 17:29:00,30.1,21.2,30.22,NW,316,17.0,17.0,69,0.00,,,0.00,0,Wunderground v.1.15,2013-01-23 23:29:00,
2013-01-23 17:34:00,29.8,21.2,30.22,NW,309,15.0,19.0,70,0.00,,,0.00,0,Wunderground v.1.15,2013-01-23 23:34:00,
2013-01-23 17:39:00,29.5,21.3,30.22,NW,312,15.0,15.0,71,0.00,,,0.00,0,Wunderground v.1.15,2013-01-23 23:39:00,
2013-01-23 17:44:00,29.3,21.1,30.22,NW,311,16.0,16.0,71,0.00,,,0.00,0,Wunderground v.1.15,2013-01-23 23:44:00,
2013-01-23 17:49:00,29.1,20.9,30.23,NW,310,17.0,17.0,71,0.00,,,0.00,0,Wunderground v.1.15,2013-01-23 23:49:00,
2013-01-23 17:54:00,29.0,21.1,30.24,NW,315,17.0,19.0,72,0.00,,,0.00,0,Wunderground v.1.15,2013-01-23 23:54:00,
2013-01-23 18:04:00,28.8,20.9,30.25,NW,313,19.0,19.0,72,0.00,,,0.00,0,Wunderground v.1.15,2013-01-24 00:04:00,
2013-01-23 18:09:00,28.5,20.6,30.25,NW,314,17.0,20.0,72,0.00,,,0.00,0,Wunderground v.1.15,2013-01-24 00:09:00,
2013-01-23 18:14:00,28.1,20.2,30.25,NW,317,16.0,20.0,72,0.00,,,0.00,0,Wunderground v.1.15,2013-01-24 00:14:00,
2013-01-23 18:19:00,27.8,20.3,30.25,NW,309,17.0,18.0,73,0.00,,,0.00,0,Wunderground v.1.15,2013-01-24 00:19:00,
2013-01-23 18:24:00,27.5,20.0,30.25,NW,311,16.0,18.0,73,0.00,,,0.00,0,Wunderground v.1.15,2013-01-24 00:24:00,
2013-01-23 18:34:00,27.2,19.7,30.26,WNW,300,17.0,19.0,73,0.00,,,0.00,0,Wunderground v.1.15,2013-01-24 00:34:00,
2013-01-23 18:39:00,27.2,19.7,30.26,WNW,296,16.0,16.0,73,0.00,,,0.00,0,Wunderground v.1.15,2013-01-24 00:39:00,
2013-01-23 18:44:00,27.0,19.5,30.26,WNW,302,14.0,17.0,73,0.00,,,0.00,0,Wunderground v.1.15,2013-01-24 00:44:00,
2013-01-23 18:49:00,26.9,19.7,30.26,WNW,300,14.0,14.0,74,0.00,,,0.00,0,Wunderground v.1.15,2013-01-24 00:49:00,
2013-01-23 18:54:00,26.7,19.5,30.26,WNW,301,14.0,15.0,74,0.00,,,0.00,0,Wunderground v.1.15,2013-01-24 00:54:00,
2013-01-23 18:59:00,26.6,19.4,30.26,NW,308,13.0,13.0,74,0.00,,,0.00,0,Wunderground v.1.15,2013-01-24 00:59:00,
2013-01-23 19:04:00,26.5,19.3,30.26,WNW,296,13.0,13.0,74,0.00,,,0.00,0,Wunderground v.1.15,2013-01-24 01:04:00,
2013-01-23 19:09:00,26.5,19.3,30.26,NW,304,13.0,15.0,74,0.00,,,0.00,0,Wunderground v.1.15,2013-01-24 01:09:00,
2013-01-23 19:14:00,26.4,19.5,30.27,WNW,295,13.0,15.0,75,0.00,,,0.00,0,Wunderground v.1.15,2013-01-24 01:14:00,
2013-01-23 19:19:00,26.2,19.4,30.27,WNW,299,13.0,13.0,75,0.00,,,0.00,0,Wunderground v.1.15,2013-01-24 01:19:00,
2013-01-23 19:24:00,26.1,19.3,30.28,NW,309,13.0,18.0,75,0.00,,,0.00,0,Wunderground v.1.15,2013-01-24 01:24:00,
2013-01-23 19:29:00,26.0,19.2,30.27,WNW,303,14.0,17.0,75,0.00,,,0.00,0,Wunderground v.1.15,2013-01-24 01:29:00,
2013-01-23 19:39:00,26.1,18.9,30.27,WNW,302,17.0,17.0,74,0.00,,,0.00,0,Wunderground v.1.15,2013-01-24 01:39:00,
2013-01-23 19:44:00,26.0,18.5,30.28,NW,308,17.0,17.0,73,0.00,,,0.00,0,Wunderground v.1.15,2013-01-24 01:44:00,
2013-01-23 19:49:00,25.8,18.3,30.29,NW,315,16.0,18.0,73,0.00,,,0.00,0,Wunderground v.1.15,2013-01-24 01:49:00,
2013-01-23 19:54:00,25.6,18.1,30.30,NW,321,16.0,18.0,73,0.00,,,0.00,0,Wunderground v.1.15,2013-01-24 01:54:00,
2013-01-23 19:59:00,25.4,17.9,30.30,NW,311,16.0,16.0,73,0.00,,,0.00,0,Wunderground v.1.15,2013-01-24 01:59:00,
2013-01-23 20:04:00,25.3,17.5,30.30,NW,318,16.0,19.0,72,0.00,,,0.00,0,Wunderground v.1.15,2013-01-24 02:04:00,
2013-01-23 20:14:00,25.0,16.6,30.30,NNW,329,16.0,16.0,70,0.00,,,0.00,0,Wunderground v.1.15,2013-01-24 02:14:00,
2013-01-23 20:19:00,24.8,16.1,30.31,NW,324,16.0,17.0,69,0.00,,,0.00,0,Wunderground v.1.15,2013-01-24 02:19:00,
2013-01-23 20:24:00,24.6,15.9,30.31,NW,319,17.0,18.0,69,0.00,,,0.00,0,Wunderground v.1.15,2013-01-24 02:24:00,
2013-01-23 20:29:00,24.4,15.3,30.31,NW,322,17.0,17.0,68,0.00,,,0.00,0,Wunderground v.1.15,2013-01-24 02:29:00,
2013-01-23 20:34:00,24.1,15.1,30.32,NW,322,14.0,17.0,68,0.00,,,0.00,0,Wunderground v.1.15,2013-01-24 02:34:00,
2013-01-23 20:44:00,23.6,14.9,30.32,NW,319,12.0,16.0,69,0.00,,,0.00,0,Wunderground v.1.15,2013-01-24 02:44:00,
2013-01-23 20:49:00,23.3,14.0,30.32,NNW,328,13.0,17.0,67,0.00,,,0.00,0,Wunderground v.1.15,2013-01-24 02:49:00,
2013-01-23 20:54:00,23.2,13.5,30.32,NW,325,17.0,21.0,66,0.00,,,0.00,0,Wunderground v.1.15,2013-01-24 02:54:00,
2013-01-23 20:59:00,22.9,13.2,30.32,NW,318,21.0,21.0,66,0.00,,,0.00,0,Wunderground v.1.15,2013-01-24 02:59:00,
2013-01-23 21:04:00,22.6,12.9,30.33,NW,313,21.0,22.0,66,0.00,,,0.00,0,Wunderground v.1.15,2013-01-24 03:04:00,
2013-01-23 21:09:00,22.4,13.1,30.33,NW,319,18.0,18.0,67,0.00,,,0.00,0,Wunderground v.1.15,2013-01-24 03:09:00,
2013-01-23 21:19:00,22.0,12.7,30.34,NW,321,17.0,17.0,67,0.00,,,0.00,0,Wunderground v.1.15,2013-01-24 03:19:00,
2013-01-23 21:24:00,21.7,12.8,30.34,NW,313,17.0,17.0,68,0.00,,,0.00,0,Wunderground v.1.15,2013-01-24 03:24:00,
2013-01-23 21:29:00,21.5,12.6,30.34,NW,321,17.0,17.0,68,0.00,,,0.00,0,Wunderground v.1.15,2013-01-24 03:29:00,
2013-01-23 21:34:00,21.2,12.6,30.34,NW,325,15.0,17.0,69,0.00,,,0.00,0,Wunderground v.1.15,2013-01-24 03:34:00,
2013-01-23 21:39:00,21.1,11.8,30.35,NW,315,14.0,24.0,67,0.00,,,0.00,0,Wunderground v.1.15,2013-01-24 03:39:00,
2013-01-23 21:49:00,20.8,11.2,30.35,NW,325,19.0,19.0,66,0.00,,,0.00,0,Wunderground v.1.15,2013-01-24 03:49:00,
2013-01-23 21:54:00,20.6,11.0,30.35,NNW,327,15.0,19.0,66,0.00,,,0.00,0,Wunderground v.1.15,2013-01-24 03:54:00,
2013-01-23 21:59:00,20.3,10.1,30.36,NW,323,14.0,14.0,64,0.00,,,0.00,0,Wunderground v.1.15,2013-01-24 03:59:00,
2013-01-23 22:04:00,20.0,9.8,30.36,NW,325,14.0,14.0,64,0.00,,,0.00,0,Wunderground v.1.15,2013-01-24 04:04:00,
2013-01-23 22:09:00,19.8,9.6,30.37,NW,324,13.0,14.0,64,0.00,,,0.00,0,Wunderground v.1.15,2013-01-24 04:09:00,
2013-01-23 22:14:00,19.5,9.3,30.38,NNW,328,12.0,14.0,64,0.00,,,0.00,0,Wunderground v.1.15,2013-01-24 04:14:00,
2013-01-23 22:24:00,19.1,9.3,30.38,NNW,343,11.0,14.0,65,0.00,,,0.00,0,Wunderground v.1.15,2013-01-24 04:24:00,
2013-01-23 22:29:00,18.9,9.1,30.38,NNW,336,13.0,13.0,65,0.00,,,0.00,0,Wunderground v.1.15,2013-01-24 04:29:00,
2013-01-23 22:34:00,18.6,8.8,30.38,NNW,328,13.0,15.0,65,0.00,,,0.00,0,Wunderground v.1.15,2013-01-24 04:34:00,
2013-01-23 22:39:00,18.0,7.5,30.39,NNW,331,12.0,15.0,63,0.00,,,0.00,0,Wunderground v.1.15,2013-01-24 04:39:00,
2013-01-23 22:44:00,17.5,7.4,30.40,NNW,333,12.0,15.0,64,0.00,,,0.00,0,Wunderground v.1.15,2013-01-24 04:44:00,
2013-01-23 22:54:00,16.7,7.3,30.40,NW,326,11.0,12.0,66,0.00,,,0.00,0,Wunderground v.1.15,2013-01-24 04:54:00,
2013-01-23 22:59:00,16.3,7.3,30.41,NNW,332,10.0,10.0,67,0.00,,,0.00,0,Wunderground v.1.15,2013-01-24 04:59:00,
2013-01-23 23:04:00,16.1,7.1,30.42,NNW,329,9.0,10.0,67,0.00,,,0.00,0,Wunderground v.1.15,2013-01-24 05:04:00,
2013-01-23 23:09:00,15.8,7.1,30.42,NNW,340,8.0,8.0,68,0.00,,,0.00,0,Wunderground v.1.15,2013-01-24 05:09:00,
2013-01-23 23:14:00,15.6,6.9,30.42,NNW,331,9.0,9.0,68,0.00,,,0.00,0,Wunderground v.1.15,2013-01-24 05:14:00,
2013-01-23 23:19:00,15.4,6.7,30.42,NNW,335,9.0,10.0,68,0.00,,,0.00,0,Wunderground v.1.15,2013-01-24 05:19:00,
2013-01-23 23:24:00,15.3,6.6,30.43,NNW,336,8.0,10.0,68,0.00,,,0.00,0,Wunderground v.1.15,2013-01-24 05:24:00,
2013-01-23 23:29:00,15.2,6.8,30.43,NNW,327,6.0,9.0,69,0.00,,,0.00,0,Wunderground v.1.15,2013-01-24 05:29:00,
2013-01-23 23:34:00,15.0,7.0,30.44,NNW,328,6.0,9.0,70,0.00,,,0.00,0,Wunderground v.1.15,2013-01-24 05:34:00,
2013-01-23 23:39:00,15.0,7.0,30.44,NNW,347,8.0,8.0,70,0.00,,,0.00,0,Wunderground v.1.15,2013-01-24 05:39:00,
2013-01-23 23:44:00,14.9,6.9,30.44,NNW,336,9.0,12.0,70,0.00,,,0.00,0,Wunderground v.1.15,2013-01-24 05:44:00,
2013-01-23 23:49:00,14.8,6.8,30.44,NNW,338,9.0,10.0,70,0.00,,,0.00,0,Wunderground v.1.15,2013-01-24 05:49:00,
2013-01-23 23:59:00,14.4,6.4,30.44,NNW,330,9.0,10.0,70,0.00,,,0.00,0,Wunderground v.1.15,2013-01-24 05:59:00,